Back to catalog

STARLINK-36428

AliveCommunicationsVLEO
NORAD 67362·PAYLOAD·🇺🇸 United States

Launched Jan 9, 2026 from Cape Canaveral Space Force Station

Loading…

Next Passes (next 24 hours)

TLE

FreshSource: CelesTrak SupGP

Epoch: Sep 14, 2026, 21:46 UTC

1 67362C 26003AE  26257.90743056  .00038851  00000+0  14075-2 0  2571
2 67362  42.9994 238.3540 0001212 257.3384  97.6892 15.27552056    16

Track STARLINK-36428 in real time with AllMySat

Download on the App Store